Seretse Khama, Botswana

9:46 PM CAT on March 30, 2017 (GMT +0200)
Sir Seretse Khama International

Weather History for FBSK - January, 2014

Change the Weather History Date:

Thursday, January 30, 2014

  Actual Average Record
Temperature  
Mean Temperature 78 °F -  
Max Temperature 84 °F 86 °F 95 °F (2001)
Min Temperature 71 °F 65 °F 59 °F (2000)
Cooling Degree Days 12    
Growing Degree Days 28 (Base 50)    
Moisture  
Dew Point 68 °F    
Average Humidity 79    
Maximum Humidity 94    
Minimum Humidity 51    
Precipitation  
Precipitation 0.00 in - - ()
Sea Level Pressure  
Sea Level Pressure 29.93 in    
Wind  
Wind Speed 5 mph ()    
Max Wind Speed 13 mph    
Max Gust Speed -    
Visibility 6.2 miles    
Events Rain    
Averages and records for this station are not official NWS values.
T = Trace of Precipitation, MM = Missing Value Source: Averaged Metar Reports

Daily Weather History Graph

Daily Weather History Graph

Search for Another Location

Airport or City:

Trip Planner

Search our weather history database for the weather conditions in past years. The results will help you decide how hot, cold, wet, or windy it might be!

Date:

Astronomy

Jan. 30, 2014 Rise Set
Actual Time 5:52 AM CAT 7:06 PM CAT
Civil Twilight 5:27 AM CAT 7:31 PM CAT
Nautical Twilight 4:58 AM CAT 8:00 PM CAT
Astronomical Twilight 4:28 AM CAT 8:29 PM CAT
Moon 5:12 AM CAT 6:36 PM CAT
Length of Visible Light 14h 03m
Length of Day
13h 14m
Waning Crescent, 0% of the Moon is Illuminated
Jan 30
Waning Crescent
Jan 30
New
Feb 6
First Quarter
Feb 15
Full
Feb 22
Last Quarter

Hourly Weather History & Observations

Time (CAT) Temp. Heat Index Dew Point Humidity Pressure Visibility Wind Dir Wind Speed Gust Speed Precip Events Conditions
12:00 AM 73.4 °F - 69.8 °F 88% 29.95 in - Variable 2.3 mph - N/A   Clear
1:00 AM 71.6 °F - 69.8 °F 94% 29.92 in - Variable 1.2 mph - N/A   Clear
2:00 AM 71.6 °F - 69.8 °F 94% 29.92 in - Variable 1.2 mph - N/A   Clear
5:00 AM 71.6 °F - 69.8 °F 94% 29.89 in 6.2 mi NNE 4.6 mph - N/A Rain Light Rain
6:00 AM 71.6 °F - 68.0 °F 88% 29.92 in 6.2 mi NE 9.2 mph - N/A Rain Light Rain
7:00 AM 71.6 °F - 69.8 °F 94% 29.92 in 6.2 mi ENE 4.6 mph - N/A   Overcast
8:00 AM 71.6 °F - 68.0 °F 88% 29.95 in 6.2 mi NE 11.5 mph - N/A   Mostly Cloudy
9:00 AM 71.6 °F - 66.2 °F 83% 29.95 in 6.2 mi NNE 10.4 mph - N/A   Overcast
10:00 AM 73.4 °F - 64.4 °F 73% 29.98 in 6.2 mi NNE 9.2 mph - N/A   Overcast
11:00 AM 75.2 °F - 66.2 °F 73% 29.98 in 6.2 mi NNE 10.4 mph - N/A   Mostly Cloudy
12:00 PM 78.8 °F - 66.2 °F 65% 29.98 in 6.2 mi NNE 12.7 mph - N/A   Mostly Cloudy
1:00 PM 82.4 °F 84.6 °F 66.2 °F 58% 29.95 in 6.2 mi NE 10.4 mph - N/A   Mostly Cloudy
2:00 PM 84.2 °F 85.6 °F 64.4 °F 51% 29.92 in 6.2 mi NNE 9.2 mph - N/A   Scattered Clouds
3:00 PM 84.2 °F 85.6 °F 64.4 °F 51% 29.89 in - NNE 8.1 mph - N/A   Scattered Clouds
4:00 PM 78.8 °F - 68.0 °F 69% 29.86 in 6.2 mi North 10.4 mph - N/A Rain Light Rain
5:00 PM 73.4 °F - 68.0 °F 83% 29.86 in 6.2 mi WNW 3.5 mph - N/A   Mostly Cloudy
6:00 PM 77.0 °F - 68.0 °F 74% 29.86 in 6.2 mi Variable 1.2 mph - N/A   Mostly Cloudy
7:00 PM 75.2 °F - 69.8 °F 83% 29.89 in 6.2 mi Variable 1.2 mph - N/A   Mostly Cloudy
8:00 PM 75.2 °F - 71.6 °F 89% 29.92 in - SW 3.5 mph - N/A   Clear
9:00 PM 75.2 °F - 69.8 °F 83% 29.92 in - South 2.3 mph - N/A   Clear
10:00 PM 75.2 °F - 69.8 °F 83% 29.95 in - South 2.3 mph - N/A   Clear
11:00 PM 75.2 °F - 68.0 °F 78% 29.98 in 6.2 mi South 2.3 mph - N/A   Mostly Cloudy